Location: Guferjoch
(46.7462°N, 8.4506°E)
Time: 00:36:59
(UTC+00:00)

CZ-4 R/B - Pass Details

Date: 14 July 2020
Orbit: 681 x 753 km, 98.5° (Epoch: 03 August)

Event Time Altitude Azimuth Distance (km) Brightness Sun altitude
Rises 00:01:21 0° 13° (NNE) 3,082 8.7 -21.3°
Reaches altitude 10° 00:03:35 10° 13° (NNE) 2,169 7.5 -21.2°
Maximum altitude 00:08:21 84° 285° (WNW) 718 3.8 -21.1°
Enters shadow 00:09:36 50° 204° (SSW) 902 3.9 -21.1°
